Regional Weather Roundup
Issued by NWS

Home | Current Version | Previous Version | Graphics & Text | Print | Product List | Glossary On
Versions: 1 2 3 4 5 6 7 8 9 10 11 12 13 14 15 16 17 18 19 20 21 22 23 24 25 26 27 28 29 30 31 32 33 34 35 36 37 38 39 40 41 42 43 44 45 46 47 48 49 50
000
ASUS43 KTOP 181859
RWRKS

WEATHER ROUNDUP FOR KANSAS
NATIONAL WEATHER SERVICE GOODLAND KS
200 PM CDT WED OCT 18 2017

NOTE:  "FAIR" INDICATES FEW OR NO CLOUDS BELOW 12,000 FEET WITH NO
SIGNIFICANT WEATHER AND/OR OBSTRUCTIONS TO VISIBILITY.

KSZ001>006-013>018-027>032-041>047-182000-
NORTHWEST KANSAS

CITY           SKY/WX    TMP DP  RH WIND       PRES   REMARKS
GOODLAND         N/A     79  19  10 N10G20    30.05F
HAYS           SUNNY     82  43  25 VRB7      29.97F
HILL CITY      MOSUNNY   82  33  17 NW7       29.98F
RUSSELL        CLOUDY    77  48  35 S9        29.96F
$$

KSZ061>065-074>080-084>089-182000-
SOUTHWEST KANSAS

CITY           SKY/WX    TMP DP  RH WIND       PRES   REMARKS
DODGE CITY     SUNNY     85  36  17 VRB3      30.00F
ELKHART          N/A     80  42  25 E6          N/A
GARDEN CITY    SUNNY     83  36  18 N6        30.01F
GREAT BEND     SUNNY     76  49  38 S5        29.98F
LIBERAL        SUNNY     79  44  28 SE5       30.02F
$$

KSZ066>073-081>083-090>101-182000-
SOUTHEAST KANSAS

CITY           SKY/WX    TMP DP  RH WIND       PRES   REMARKS
CHANUTE        SUNNY     73  50  44 S15       30.04F
COFFEYVILLE    SUNNY     74  50  42 S21G28    30.04F
HUTCHINSON     SUNNY     76  49  38 S9        29.98F
MEDICINE LODGE   N/A     79  47  32 SW9G17    29.98F
NEWTON         SUNNY     72  49  44 S15       30.01S
PARSONS        SUNNY     74  48  39 S17G23    30.04F
WICHITA INTL   MOSUNNY   74  49  41 S16       29.99F
WICHITA JABRA  SUNNY     72  48  42 S16G24    29.99F
WICHITA MCCONL SUNNY     74  47  37 SW14G20   30.00F
WINFIELD       SUNNY     76  48  37 S17G26    30.02F
$$

KSZ007>012-019>026-033>040-048>060-102>105-182000-
NORTHEAST KANSAS

CITY           SKY/WX    TMP DP  RH WIND       PRES   REMARKS
CONCORDIA      MOSUNNY   69  50  50 S13       29.94F
EMPORIA        MOSUNNY   75  48  38 S17G24    30.00F
LAWRENCE       SUNNY     72  49  44 S13G18    30.00F
MANHATTAN      MOSUNNY   73  50  44 SW12      29.96F
OLATHE IND     SUNNY     72  48  42 S17       30.03F
OLATHE EXE     SUNNY     71  47  42 S13G21    30.02F
SALINA         SUNNY     75  51  43 SW14      29.98F
TOPEKA BILLARD MOSUNNY   72  48  42 SW10      29.98F
TOPEKA FORBES  MOSUNNY   74  48  39 S15       29.99F
$$



USA.gov is the U.S. government's official web portal to all federal, state and local government web resources and services.